Weather History for KOZW - January, 2013

Change the Weather History Date:

Wednesday, January 23, 2013

  Actual Average Record
Temperature  
Mean Temperature 10 °F -  
Max Temperature 18 °F 28 °F 55 °F (1999)
Min Temperature 1 °F 14 °F -4 °F (2005)
Degree Days  
Heating Degree Days 56    
Moisture  
Dew Point 2 °F    
Average Humidity 70    
Maximum Humidity 80    
Minimum Humidity 57    
Precipitation  
Precipitation 0.00 in - - ()
Sea Level Pressure  
Sea Level Pressure 30.13 in    
Wind  
Wind Speed 6 mph (SW)    
Max Wind Speed 13 mph    
Max Gust Speed 17 mph    
Visibility 7 miles    
Events Snow    
Averages and records for this station are not official NWS values.
T = Trace of Precipitation, MM = Missing Value Source: NWS Daily Summary

Daily Weather History Graph

Daily Weather History Graph

Search for Another Location

Airport or City:

Trip Planner

Search our weather history database for the weather conditions in past years. The results will help you decide how hot, cold, wet, or windy it might be!

Date:

Astronomy

Jan. 23, 2013 Rise Set
Actual Time 7:58 AM EST 5:38 PM EST
Civil Twilight 7:27 AM EST 6:08 PM EST
Nautical Twilight 6:53 AM EST 6:43 PM EST
Astronomical Twilight 6:19 AM EST 7:16 PM EST
Moon 2:46 PM EST (1/23) 5:09 AM EST (1/23)
Length of Visible Light 10h 41m
Length of Day
9h 39m
Waxing Gibbous, 89% of the Moon is Illuminated
Jan 23
Waxing Gibbous
Jan 26
Full
Feb 3
Last Quarter
Feb 10
New
Feb 17
First Quarter

Hourly Weather History & Observations

Time (EST) Temp. Windchill Dew Point Humidity Pressure Visibility Wind Dir Wind Speed Gust Speed Precip Events Conditions
12:15 AM 6.4 °F -3.9 °F -3.3 °F 64% 30.23 in 10.0 mi West 5.8 mph - N/A   Overcast
12:34 AM 6.4 °F -6.3 °F -3.8 °F 63% 30.23 in 10.0 mi West 8.1 mph - N/A   Overcast
12:55 AM 6.6 °F -3.7 °F -3.6 °F 63% 30.23 in 10.0 mi WNW 5.8 mph - N/A   Overcast
1:14 AM 6.4 °F -2.4 °F -4.0 °F 62% 30.23 in 10.0 mi West 4.6 mph - N/A   Overcast
1:34 AM 6.6 °F -0.3 °F -3.1 °F 64% 30.23 in 10.0 mi West 3.5 mph - N/A   Overcast
1:55 AM 6.3 °F -5.4 °F -2.6 °F 67% 30.22 in 10.0 mi West 6.9 mph - N/A   Overcast
2:14 AM 6.3 °F -2.6 °F -3.6 °F 64% 30.22 in 10.0 mi WSW 4.6 mph - N/A   Overcast
2:35 AM 5.9 °F -3.0 °F -3.6 °F 65% 30.23 in 10.0 mi WSW 4.6 mph - N/A   Overcast
2:55 AM 6.6 °F -5.0 °F -2.0 °F 68% 30.23 in 10.0 mi West 6.9 mph - N/A   Overcast
3:14 AM 6.1 °F -6.8 °F -2.0 °F 69% 30.23 in 10.0 mi West 8.1 mph - N/A   Overcast
3:35 AM 4.8 °F -4.3 °F -3.1 °F 70% 30.23 in 10.0 mi West 4.6 mph - N/A   Scattered Clouds
3:55 AM 3.6 °F -5.7 °F -4.0 °F 71% 30.23 in 10.0 mi West 4.6 mph - N/A   Clear
4:14 AM 2.8 °F -6.6 °F -4.2 °F 73% 30.23 in 10.0 mi WSW 4.6 mph - N/A   Clear
4:35 AM 2.7 °F -6.8 °F -4.0 °F 74% 30.23 in 10.0 mi WSW 4.6 mph - N/A   Clear
4:55 AM 2.3 °F -5.2 °F -4.0 °F 75% 30.23 in 10.0 mi WSW 3.5 mph - N/A   Clear
5:14 AM 2.3 °F -5.2 °F -3.6 °F 76% 30.22 in 10.0 mi SW 3.5 mph - N/A   Clear
5:35 AM 1.9 °F - -3.6 °F 77% 30.21 in 10.0 mi Calm Calm - N/A   Clear
5:54 AM 1.8 °F -7.8 °F -3.6 °F 78% 30.21 in 10.0 mi SW 4.6 mph - N/A   Clear
6:14 AM 1.9 °F -7.6 °F -3.8 °F 77% 30.21 in 10.0 mi SW 4.6 mph - N/A   Clear
6:35 AM 2.1 °F -7.4 °F -3.6 °F 77% 30.20 in 10.0 mi SW 4.6 mph - N/A   Scattered Clouds
6:54 AM 2.3 °F -7.2 °F -3.6 °F 76% 30.20 in 10.0 mi SW 4.6 mph - N/A   Mostly Cloudy
7:15 AM 2.8 °F -6.6 °F -3.1 °F 76% 30.20 in 10.0 mi SSW 4.6 mph - N/A   Overcast
7:35 AM 3.9 °F -6.9 °F -2.0 °F 76% 30.20 in 10.0 mi SSW 5.8 mph - N/A   Overcast
7:54 AM 4.8 °F -5.8 °F -1.3 °F 76% 30.20 in 10.0 mi SSW 5.8 mph - N/A   Overcast
8:15 AM 4.8 °F -7.1 °F -1.5 °F 75% 30.20 in 10.0 mi SW 6.9 mph - N/A   Overcast
8:34 AM 5.0 °F -8.1 °F -1.3 °F 75% 30.20 in 10.0 mi SSW 8.1 mph - N/A   Overcast
8:55 AM 5.7 °F -4.8 °F -0.9 °F 74% 30.20 in 10.0 mi SSW 5.8 mph - N/A   Overcast
9:15 AM 6.6 °F -3.7 °F -0.8 °F 72% 30.20 in 10.0 mi SSW 5.8 mph - N/A   Overcast
9:34 AM 7.0 °F -4.5 °F -1.1 °F 69% 30.20 in 10.0 mi SSW 6.9 mph - N/A   Overcast
9:55 AM 7.7 °F -5.8 °F -1.3 °F 67% 30.19 in 10.0 mi SSW 9.2 mph - N/A   Overcast
10:15 AM 9.1 °F -3.0 °F -0.9 °F 64% 30.19 in 7.0 mi South 8.1 mph - N/A   Overcast
10:34 AM 10.2 °F -3.5 °F -0.4 °F 62% 30.18 in 10.0 mi SSW 10.4 mph - N/A   Overcast
10:55 AM 10.4 °F -2.4 °F 1.4 °F 67% 30.18 in 10.0 mi SW 9.2 mph - N/A   Overcast
11:15 AM 11.7 °F 0.0 °F 3.2 °F 69% 30.18 in 3.0 mi SW 8.1 mph - N/A Snow Light Snow
11:34 AM 12.6 °F 0.2 °F 4.5 °F 70% 30.17 in 2.0 mi SSW 9.2 mph - N/A Snow Light Snow
11:55 AM 13.5 °F 0.5 °F 5.4 °F 70% 30.16 in 3.0 mi SW 10.4 mph - N/A Snow Light Snow
12:15 PM 14.0 °F 1.2 °F 5.4 °F 69% 30.14 in 4.0 mi SW 10.4 mph 16.1 mph N/A Snow Light Snow
12:34 PM 14.7 °F 1.4 °F 6.3 °F 69% 30.13 in 3.0 mi SW 11.5 mph 17.3 mph N/A Snow Light Snow
12:55 PM 15.4 °F 3.0 °F 6.8 °F 69% 30.11 in 4.0 mi SW 10.4 mph - N/A   Haze
1:15 PM 15.6 °F 4.0 °F 7.2 °F 69% 30.10 in 3.0 mi SW 9.2 mph - N/A Snow Light Snow
1:34 PM 15.8 °F 4.2 °F 7.3 °F 69% 30.09 in 3.0 mi SW 9.2 mph 16.1 mph N/A   Haze
1:55 PM 16.5 °F 3.6 °F 7.5 °F 68% 30.09 in 4.0 mi WSW 11.5 mph 16.1 mph N/A   Haze
2:15 PM 17.2 °F 6.0 °F 7.3 °F 65% 30.08 in 5.0 mi SW 9.2 mph - N/A   Haze
2:34 PM 17.4 °F 4.7 °F 7.5 °F 65% 30.07 in 7.0 mi WSW 11.5 mph - N/A   Overcast
2:55 PM 17.8 °F 5.9 °F 6.8 °F 62% 30.06 in 7.0 mi SW 10.4 mph - N/A   Overcast
3:14 PM 17.8 °F 4.6 °F 5.9 °F 60% 30.05 in 5.0 mi SW 12.7 mph 16.1 mph N/A   Haze
3:34 PM 17.6 °F 4.3 °F 6.3 °F 61% 30.05 in 7.0 mi SW 12.7 mph 17.3 mph N/A   Overcast
3:55 PM 18.3 °F 6.6 °F 5.5 °F 57% 30.05 in 10.0 mi WSW 10.4 mph - N/A   Overcast
4:14 PM 17.4 °F 5.4 °F 5.0 °F 58% 30.05 in 10.0 mi SW 10.4 mph - N/A   Mostly Cloudy
4:34 PM 16.7 °F 5.3 °F 5.9 °F 63% 30.04 in 10.0 mi SW 9.2 mph - N/A   Overcast
4:55 PM 16.5 °F 6.0 °F 5.7 °F 63% 30.04 in 10.0 mi SW 8.1 mph - N/A   Overcast
5:14 PM 16.7 °F 6.2 °F 5.2 °F 61% 30.04 in 10.0 mi SW 8.1 mph - N/A   Overcast
5:35 PM 16.5 °F 6.9 °F 5.0 °F 61% 30.03 in 10.0 mi SW 6.9 mph - N/A   Overcast
5:55 PM 16.3 °F 6.7 °F 5.5 °F 63% 30.04 in 10.0 mi SW 6.9 mph - N/A   Overcast
6:14 PM 16.2 °F 3.9 °F 5.7 °F 64% 30.03 in 7.0 mi SW 10.4 mph - N/A   Overcast
6:35 PM 15.8 °F 3.4 °F 7.0 °F 68% 30.04 in 4.0 mi WSW 10.4 mph - N/A Snow Light Snow
6:55 PM 15.4 °F 8.1 °F 7.2 °F 70% 30.04 in 4.0 mi SW 4.6 mph - N/A Snow Light Snow
7:14 PM 15.3 °F 5.4 °F 7.3 °F 71% 30.04 in 4.0 mi SW 6.9 mph - N/A Snow Light Snow
7:35 PM 14.9 °F 5.0 °F 7.0 °F 71% 30.04 in 5.0 mi SSW 6.9 mph - N/A Snow Light Snow
7:54 PM 14.7 °F 5.9 °F 7.0 °F 71% 30.03 in 7.0 mi SW 5.8 mph - N/A   Overcast
8:14 PM 14.5 °F 7.1 °F 7.3 °F 73% 30.03 in 4.0 mi SW 4.6 mph - N/A Snow Light Snow
8:35 PM 14.0 °F 6.5 °F 7.2 °F 74% 30.03 in 5.0 mi SW 4.6 mph - N/A   Haze
8:54 PM 13.3 °F - 6.8 °F 75% 30.03 in 5.0 mi Calm Calm - N/A   Haze
9:14 PM 13.1 °F - 7.2 °F 77% 30.03 in 7.0 mi Calm Calm - N/A Snow Light Snow
9:35 PM 12.7 °F - 7.0 °F 78% 30.04 in 2.0 mi Calm Calm - N/A Snow Light Snow
9:54 PM 13.3 °F - 7.7 °F 78% 30.04 in 1.8 mi Calm Calm - N/A Snow Light Snow
10:14 PM 13.1 °F 7.1 °F 7.9 °F 80% 30.05 in 2.0 mi WSW 3.5 mph - N/A Snow Light Snow
10:35 PM 14.5 °F - 9.3 °F 80% 30.05 in 2.5 mi Calm Calm - N/A Snow Light Snow
10:54 PM 14.0 °F 8.2 °F 8.6 °F 79% 30.05 in 3.0 mi West 3.5 mph - N/A Snow Light Snow
11:14 PM 14.0 °F 6.5 °F 8.6 °F 79% 30.06 in 4.0 mi West 4.6 mph - N/A   Haze
11:35 PM 13.8 °F 4.9 °F 8.6 °F 80% 30.07 in 7.0 mi WNW 5.8 mph - N/A   Overcast
11:54 PM 13.6 °F 4.6 °F 8.6 °F 80% 30.07 in 5.0 mi West 5.8 mph - N/A Snow Light Snow